Glenwood, MN

2:22 AM CST on January 20, 2017 (GMT -0600)
Glenwood Municipal

Weather History for KGHW - July, 2012

Change the Weather History Date:

Wednesday, July 11, 2012

  Actual Average Record
Temperature  
Mean Temperature 74 °F -  
Max Temperature 87 °F 84 °F 98 °F (1976)
Min Temperature 60 °F 59 °F 48 °F (1988)
Cooling Degree Days 8    
Growing Degree Days 24 (Base 50)    
Moisture  
Dew Point 53 °F    
Average Humidity 51    
Maximum Humidity 82    
Minimum Humidity 25    
Precipitation  
Precipitation 0.00 in - - ()
Sea Level Pressure  
Sea Level Pressure 30.10 in    
Wind  
Wind Speed 8 mph (South)    
Max Wind Speed 16 mph    
Max Gust Speed 23 mph    
Visibility 10 miles    
Events      
Averages and records for this station are not official NWS values.
T = Trace of Precipitation, MM = Missing Value Source: NWS Daily Summary

Daily Weather History Graph

Daily Weather History Graph

Search for Another Location

Airport or City:

Trip Planner

Search our weather history database for the weather conditions in past years. The results will help you decide how hot, cold, wet, or windy it might be!

Date:

Astronomy

Jul. 11, 2012 Rise Set
Actual Time 5:43 AM CDT 9:09 PM CDT
Civil Twilight 5:06 AM CDT 9:46 PM CDT
Nautical Twilight 4:17 AM CDT 10:35 PM CDT
Astronomical Twilight 3:15 AM CDT 11:37 PM CDT
Moon 12:28 AM CDT (7/11) 2:37 PM CDT (7/11)
Length of Visible Light 16h 40m
Length of Day
15h 26m
Last Quarter, 44% of the Moon is Illuminated
Jul 11
Last Quarter
Jul 18
New
Jul 26
First Quarter
Aug 1
Full
Aug 9
Last Quarter

Hourly Weather History & Observations

Time (CDT) Temp. Heat Index Dew Point Humidity Pressure Visibility Wind Dir Wind Speed Gust Speed Precip Events Conditions
12:14 AM 66.2 °F - 55.4 °F 68% 30.13 in 10.0 mi South 5.8 mph - N/A   Clear
12:34 AM 66.2 °F - 55.4 °F 68% 30.13 in 10.0 mi South 6.9 mph - N/A   Clear
12:54 AM 64.4 °F - 55.4 °F 73% 30.13 in 10.0 mi South 5.8 mph - N/A   Clear
1:14 AM 64.4 °F - 55.4 °F 73% 30.14 in 10.0 mi South 5.8 mph - N/A   Clear
1:34 AM 64.4 °F - 55.4 °F 73% 30.13 in 10.0 mi South 5.8 mph - N/A   Clear
1:54 AM 64.4 °F - 55.4 °F 73% 30.14 in 10.0 mi South 6.9 mph - N/A   Clear
2:14 AM 62.6 °F - 55.4 °F 77% 30.14 in 10.0 mi South 6.9 mph - N/A   Clear
2:34 AM 62.6 °F - 55.4 °F 77% 30.14 in 10.0 mi South 6.9 mph - N/A   Clear
2:54 AM 62.6 °F - 55.4 °F 77% 30.14 in 10.0 mi South 8.1 mph - N/A   Clear
3:14 AM 60.8 °F - 55.4 °F 82% 30.14 in 10.0 mi South 8.1 mph - N/A   Clear
3:34 AM 60.8 °F - 55.4 °F 82% 30.14 in 10.0 mi South 6.9 mph - N/A   Clear
3:54 AM 60.8 °F - 53.6 °F 77% 30.15 in 10.0 mi South 5.8 mph - N/A   Clear
4:14 AM 60.8 °F - 53.6 °F 77% 30.14 in 10.0 mi South 4.6 mph - N/A   Clear
4:34 AM 60.8 °F - 53.6 °F 77% 30.14 in 10.0 mi South 3.5 mph - N/A   Clear
4:54 AM 60.8 °F - 53.6 °F 77% 30.14 in 10.0 mi South 4.6 mph - N/A   Clear
5:14 AM 60.8 °F - 53.6 °F 77% 30.15 in 10.0 mi South 3.5 mph - N/A   Clear
5:34 AM 62.6 °F - 55.4 °F 77% 30.15 in 10.0 mi SSW 3.5 mph - N/A   Clear
5:54 AM 62.6 °F - 55.4 °F 77% 30.15 in 10.0 mi South 3.5 mph - N/A   Clear
6:14 AM 62.6 °F - 55.4 °F 77% 30.15 in 10.0 mi South 5.8 mph - N/A   Clear
6:34 AM 60.8 °F - 55.4 °F 82% 30.15 in 10.0 mi Calm Calm - N/A   Clear
6:54 AM 62.6 °F - 55.4 °F 77% 30.14 in 10.0 mi SSW 3.5 mph - N/A   Clear
7:14 AM 66.2 °F - 57.2 °F 73% 30.15 in 10.0 mi South 6.9 mph - N/A   Clear
7:34 AM 68.0 °F - 57.2 °F 68% 30.15 in 10.0 mi South 6.9 mph - N/A   Clear
8:14 AM 71.6 °F - 55.4 °F 57% 30.14 in 10.0 mi South 8.1 mph - N/A   Clear
8:34 AM 73.4 °F - 55.4 °F 53% 30.13 in 10.0 mi South 9.2 mph - N/A   Clear
8:54 AM 75.2 °F - 55.4 °F 50% 30.13 in 10.0 mi South 9.2 mph - N/A   Clear
9:14 AM 75.2 °F - 55.4 °F 50% 30.14 in 10.0 mi South 10.4 mph - N/A   Clear
9:34 AM 77.0 °F - 53.6 °F 44% 30.14 in 10.0 mi SSW 15.0 mph - N/A   Clear
9:54 AM 78.8 °F - 53.6 °F 42% 30.14 in 10.0 mi South 11.5 mph - N/A   Clear
10:13 AM 80.6 °F 80.3 °F 53.6 °F 39% 30.14 in 10.0 mi SSW 10.4 mph - N/A   Clear
10:34 AM 80.6 °F 80.3 °F 53.6 °F 39% 30.14 in 10.0 mi SSW 10.4 mph - N/A   Clear
10:54 AM 82.4 °F - 51.8 °F 35% 30.13 in 10.0 mi SSW 11.5 mph 17.3 mph N/A   Clear
11:14 AM 82.4 °F - 50.0 °F 32% 30.13 in 10.0 mi South 10.4 mph - N/A   Clear
11:34 AM 82.4 °F - 50.0 °F 32% 30.13 in 10.0 mi South 12.7 mph 19.6 mph N/A   Clear
11:54 AM 84.2 °F - 51.8 °F 33% 30.13 in 10.0 mi South 15.0 mph - N/A   Clear
12:14 PM 84.2 °F - 50.0 °F 30% 30.13 in 10.0 mi South 15.0 mph 19.6 mph N/A   Clear
12:34 PM 84.2 °F - 50.0 °F 30% 30.12 in 10.0 mi South 15.0 mph - N/A   Clear
12:54 PM 84.2 °F - 50.0 °F 30% 30.12 in 10.0 mi SSW 16.1 mph 19.6 mph N/A   Clear
1:14 PM 84.2 °F - 48.2 °F 29% 30.11 in 10.0 mi South 13.8 mph - N/A   Clear
1:34 PM 86.0 °F - 50.0 °F 29% 30.11 in 10.0 mi South 12.7 mph 17.3 mph N/A   Clear
1:54 PM 86.0 °F - 48.2 °F 27% 30.10 in 10.0 mi South 10.4 mph - N/A   Clear
2:14 PM 86.0 °F - 48.2 °F 27% 30.10 in 10.0 mi South 15.0 mph - N/A   Clear
2:34 PM 86.0 °F - 48.2 °F 27% 30.10 in 10.0 mi South 12.7 mph 19.6 mph N/A   Clear
2:54 PM 87.8 °F - 48.2 °F 25% 30.10 in 10.0 mi South 12.7 mph 23.0 mph N/A   Clear
3:13 PM 87.8 °F - 48.2 °F 25% 30.09 in 10.0 mi SSW 15.0 mph - N/A   Clear
3:34 PM 87.8 °F - 48.2 °F 25% 30.09 in 10.0 mi South 11.5 mph 16.1 mph N/A   Clear
3:54 PM 87.8 °F - 48.2 °F 25% 30.08 in 10.0 mi South 15.0 mph - N/A   Clear
4:14 PM 86.0 °F - 48.2 °F 27% 30.08 in 10.0 mi SSW 15.0 mph 18.4 mph N/A   Clear
4:34 PM 84.2 °F - 46.4 °F 27% 30.08 in 10.0 mi South 13.8 mph - N/A   Clear
4:53 PM 86.0 °F - 48.2 °F 27% 30.08 in 10.0 mi South 12.7 mph - N/A   Clear
5:14 PM 84.2 °F - 50.0 °F 30% 30.07 in 10.0 mi South 9.2 mph 17.3 mph N/A   Clear
5:34 PM 84.2 °F - 50.0 °F 30% 30.08 in 10.0 mi South 9.2 mph - N/A   Clear
5:54 PM 86.0 °F - 51.8 °F 31% 30.07 in 10.0 mi South 12.7 mph - N/A   Clear
6:14 PM 84.2 °F - 50.0 °F 30% 30.06 in 10.0 mi South 12.7 mph - N/A   Clear
6:33 PM 84.2 °F - 48.2 °F 29% 30.06 in 10.0 mi South 12.7 mph - N/A   Clear
6:54 PM 84.2 °F - 48.2 °F 29% 30.05 in 10.0 mi South 10.4 mph - N/A   Clear
7:13 PM 82.4 °F - 51.8 °F 35% 30.05 in 10.0 mi South 10.4 mph - N/A   Clear
7:34 PM 82.4 °F 81.7 °F 55.4 °F 39% 30.04 in 10.0 mi SSE 12.7 mph - N/A   Clear
7:54 PM 80.6 °F 80.3 °F 53.6 °F 39% 30.04 in 10.0 mi SSE 9.2 mph - N/A   Clear
8:14 PM 78.8 °F - 55.4 °F 44% 30.04 in 10.0 mi SSE 8.1 mph - N/A   Clear
8:34 PM 77.0 °F - 55.4 °F 47% 30.04 in 10.0 mi SSE 6.9 mph - N/A   Clear
8:54 PM 75.2 °F - 57.2 °F 53% 30.03 in 7.0 mi SSE 6.9 mph - N/A   Clear
9:14 PM 71.6 °F - 57.2 °F 60% 30.03 in 10.0 mi SSE 6.9 mph - N/A   Clear
9:34 PM 69.8 °F - 57.2 °F 64% 30.03 in 10.0 mi SSE 6.9 mph - N/A   Clear
10:14 PM 71.6 °F - 57.2 °F 60% 30.03 in 10.0 mi South 8.1 mph - N/A   Clear
10:34 PM 69.8 °F - 57.2 °F 64% 30.03 in 10.0 mi SSE 8.1 mph - N/A   Clear
10:54 PM 69.8 °F - 55.4 °F 60% 30.03 in 10.0 mi SSE 9.2 mph - N/A   Clear
11:34 PM 69.8 °F - 55.4 °F 60% 30.02 in 10.0 mi SSE 10.4 mph - N/A   Clear
11:54 PM 69.8 °F - 55.4 °F 60% 30.02 in 10.0 mi South 9.2 mph - N/A   Clear